Overview Statistics Trail Chart Weather Telemetry Raw packets
 

This is the latest recevied weather packets stored in our database for station/object KC2GYU. If no packets are shown the sender has not sent any weather packets the latest 10 day(s).

<< 25 26 27 28 29 30 31 >>
Time Temp. Humidity Pressure Rain* Wind** Luminosity Snow
1777939674 15° C 84% 1012.3 hPa 0 mm - 0 W/m² -
1777939372 15.56° C 83% 1012.3 hPa 0 mm - 0 W/m² -
1777939068 15.56° C 83% 1012 hPa 0 mm - 0 W/m² -
1777938765 15.56° C 82% 1012.2 hPa 0 mm - 2 W/m² -
1777938462 15.56° C 82% 1012.1 hPa 0 mm - 4 W/m² -
1777938159 15.56° C 82% 1012 hPa 0 mm - 7 W/m² -
1777937855 15.56° C 81% 1011.8 hPa 0 mm - 10 W/m² -
1777937551 16.11° C 80% 1011.9 hPa 0 mm - 12 W/m² -
1777937249 16.11° C 79% 1012 hPa 0 mm - 17 W/m² -
1777936945 16.67° C 79% 1011.9 hPa 0 mm - 19 W/m² -
1777936642 16.67° C 78% 1012 hPa 0 mm - 22 W/m² -
1777936339 16.67° C 78% 1011.9 hPa 0 mm - 24 W/m² -
1777936035 16.67° C 77% 1011.9 hPa 0 mm - 27 W/m² -
1777935734 16.67° C 76% 1011.8 hPa 0 mm - 31 W/m² -
1777935432 17.22° C 76% 1011.9 hPa 0 mm - 35 W/m² -
1777935128 17.22° C 76% 1011.9 hPa 0 mm - 39 W/m² -
1777934825 17.22° C 76% 1011.8 hPa 0 mm - 38 W/m² -
1777934522 17.22° C 76% 1011.9 hPa 0 mm - 55 W/m² -
1777934219 17.22° C 76% 1012 hPa 0 mm - 56 W/m² -
1777933914 17.22° C 76% 1011.8 hPa 0 mm - 52 W/m² -
1777933611 17.22° C 75% 1011.8 hPa 0 mm - 47 W/m² -
1777933308 17.22° C 75% 1011.9 hPa 0 mm - 47 W/m² -
1777933005 17.78° C 75% 1011.7 hPa 0 mm - 52 W/m² -
1777932725 17.78° C 74% 1011.7 hPa 0 mm - 74 W/m² -
1777932399 17.78° C 73% 1011.7 hPa 0 mm - 174 W/m² -

* Rain latest hour (hover to see other rain measurements)
** Current wind speed in m/s (hover to see current wind gust speed)